Location: Cherryland
(37.6794°N, 122.1033°W)
Time: 06:31:13
(UTC+00:00)

ATLAS 2AS CENTAUR R/B - Pass Details

Date: 14 December 2025
Orbit: 1049 x 1162 km, 63.7° (Epoch: 20 January)

Event Time Altitude Azimuth Distance (km) Brightness Sun altitude
Rises 12:21:43 0° 185° (S) 3,959 5.7 -33.6°
Reaches altitude 10° 12:24:38 10° 177° (S) 2,987 5.1 -33.0°
Maximum altitude 12:31:01 37° 113° (ESE) 1,636 4.0 -31.7°
Drops below altitude 10° 12:37:16 10° 48° (NE) 2,927 5.4 -30.5°
Sets 12:40:05 0° 41° (NE) 3,871 6.1 -29.9°
